Time,TemperatureF,DewpointF,PressureIn,WindDirection,WindDirectionDegrees,WindSpeedMPH,WindSpeedGustMPH,Humidity,HourlyPrecipIn,Conditions,Clouds,dailyrainin,SoftwareType,DateUTC
2013-07-12 00:02:00,77.5,64.1,29.74,South,183,0.0,11.0,63,0.00,,,0.00,WUHU216DAVISVP2,2013-07-12 05:02:00,
2013-07-12 00:07:00,77.3,64.0,29.73,SSW,198,6.0,13.0,63,0.00,,,0.00,WUHU216DAVISVP2,2013-07-12 05:07:00,
2013-07-12 00:12:00,77.2,63.9,29.73,SSW,207,2.0,13.0,63,0.00,,,0.00,WUHU216DAVISVP2,2013-07-12 05:12:00,
2013-07-12 00:17:00,77.1,63.8,29.73,South,180,1.0,11.0,63,0.00,,,0.00,WUHU216DAVISVP2,2013-07-12 05:17:00,
2013-07-12 00:22:00,77.1,63.8,29.73,South,171,0.0,14.0,63,0.00,,,0.00,WUHU216DAVISVP2,2013-07-12 05:22:00,
2013-07-12 00:27:00,77.0,63.7,29.73,SSW,198,0.0,14.0,63,0.00,,,0.00,WUHU216DAVISVP2,2013-07-12 05:27:00,
2013-07-12 00:32:00,76.8,63.9,29.73,SSE,157,4.0,11.0,64,0.00,,,0.00,WUHU216DAVISVP2,2013-07-12 05:32:00,
2013-07-12 00:37:00,76.8,63.5,29.72,South,173,0.0,11.0,63,0.00,,,0.00,WUHU216DAVISVP2,2013-07-12 05:37:00,
2013-07-12 00:42:00,76.8,63.5,29.73,SSE,157,0.0,13.0,63,0.00,,,0.00,WUHU216DAVISVP2,2013-07-12 05:42:00,
2013-07-12 00:47:00,76.9,63.6,29.73,SSE,163,2.0,13.0,63,0.00,,,0.00,WUHU216DAVISVP2,2013-07-12 05:47:00,
2013-07-12 00:52:00,76.9,63.6,29.73,SSW,192,1.0,14.0,63,0.00,,,0.00,WUHU216DAVISVP2,2013-07-12 05:52:00,
2013-07-12 00:57:00,76.8,63.5,29.72,SSW,205,2.0,14.0,63,0.00,,,0.00,WUHU216DAVISVP2,2013-07-12 05:57:00,
2013-07-12 01:02:00,76.7,63.4,29.72,SSW,192,0.0,16.0,63,0.00,,,0.00,WUHU216DAVISVP2,2013-07-12 06:02:00,
2013-07-12 01:07:00,76.5,63.2,29.72,SSW,201,0.0,16.0,63,0.00,,,0.00,WUHU216DAVISVP2,2013-07-12 06:07:00,
2013-07-12 01:12:00,76.4,63.5,29.71,SSE,148,4.0,19.0,64,0.00,,,0.00,WUHU216DAVISVP2,2013-07-12 06:12:00,
2013-07-12 01:17:00,76.4,63.5,29.71,SSW,207,0.0,19.0,64,0.00,,,0.00,WUHU216DAVISVP2,2013-07-12 06:17:00,
2013-07-12 01:22:00,76.3,63.5,29.71,SSE,165,5.0,14.0,64,0.00,,,0.00,WUHU216DAVISVP2,2013-07-12 06:22:00,
2013-07-12 01:27:00,76.3,63.5,29.71,South,184,0.0,15.0,64,0.00,,,0.00,WUHU216DAVISVP2,2013-07-12 06:27:00,
2013-07-12 01:32:00,76.2,63.4,29.71,SSW,198,0.0,15.0,64,0.00,,,0.00,WUHU216DAVISVP2,2013-07-12 06:32:00,
2013-07-12 01:37:00,76.1,63.3,29.71,South,186,0.0,12.0,64,0.00,,,0.00,WUHU216DAVISVP2,2013-07-12 06:37:00,
2013-07-12 01:42:00,76.0,63.2,29.70,South,176,12.0,14.0,64,0.00,,,0.00,WUHU216DAVISVP2,2013-07-12 06:42:00,
2013-07-12 01:47:00,75.9,63.1,29.70,SSW,196,1.0,14.0,64,0.00,,,0.00,WUHU216DAVISVP2,2013-07-12 06:47:00,
2013-07-12 01:52:00,75.8,63.0,29.71,South,169,3.0,13.0,64,0.00,,,0.00,WUHU216DAVISVP2,2013-07-12 06:52:00,
2013-07-12 01:57:00,75.8,63.0,29.71,South,180,0.0,13.0,64,0.00,,,0.00,WUHU216DAVISVP2,2013-07-12 06:57:00,
2013-07-12 02:02:00,75.7,62.9,29.72,South,182,0.0,12.0,64,0.00,,,0.00,WUHU216DAVISVP2,2013-07-12 07:02:00,
2013-07-12 02:07:00,75.7,62.9,29.72,South,171,3.0,12.0,64,0.00,,,0.00,WUHU216DAVISVP2,2013-07-12 07:07:00,
2013-07-12 02:12:00,75.6,62.8,29.72,South,186,0.0,11.0,64,0.00,,,0.00,WUHU216DAVISVP2,2013-07-12 07:12:00,
2013-07-12 02:17:00,75.5,62.7,29.72,SSW,194,0.0,13.0,64,0.00,,,0.00,WUHU216DAVISVP2,2013-07-12 07:17:00,
2013-07-12 02:22:00,75.4,63.0,29.72,SSW,204,7.0,13.0,65,0.00,,,0.00,WUHU216DAVISVP2,2013-07-12 07:22:00,
2013-07-12 02:27:00,75.3,62.9,29.71,SSW,196,4.0,11.0,65,0.00,,,0.00,WUHU216DAVISVP2,2013-07-12 07:27:00,
2013-07-12 02:32:00,75.2,62.8,29.71,South,176,0.0,10.0,65,0.00,,,0.00,WUHU216DAVISVP2,2013-07-12 07:32:00,
2013-07-12 02:37:00,75.2,62.8,29.71,SSW,204,0.0,12.0,65,0.00,,,0.00,WUHU216DAVISVP2,2013-07-12 07:37:00,
2013-07-12 02:42:00,75.2,62.8,29.71,South,190,0.0,12.0,65,0.00,,,0.00,WUHU216DAVISVP2,2013-07-12 07:42:00,
2013-07-12 02:47:00,75.1,62.7,29.71,South,190,0.0,9.0,65,0.00,,,0.00,WUHU216DAVISVP2,2013-07-12 07:47:00,
2013-07-12 02:52:00,75.1,62.7,29.71,SSW,200,6.0,9.0,65,0.00,,,0.00,WUHU216DAVISVP2,2013-07-12 07:52:00,
2013-07-12 02:57:00,75.1,62.7,29.71,South,173,3.0,12.0,65,0.00,,,0.00,WUHU216DAVISVP2,2013-07-12 07:57:00,
2013-07-12 03:02:00,75.2,62.8,29.71,South,175,4.0,12.0,65,0.00,,,0.00,WUHU216DAVISVP2,2013-07-12 08:02:00,
2013-07-12 03:07:00,75.2,62.8,29.71,South,180,3.0,11.0,65,0.00,,,0.00,WUHU216DAVISVP2,2013-07-12 08:07:00,
2013-07-12 03:12:00,75.2,62.8,29.72,SW,215,1.0,11.0,65,0.00,,,0.00,WUHU216DAVISVP2,2013-07-12 08:12:00,
2013-07-12 03:17:00,75.2,62.8,29.71,South,171,0.0,11.0,65,0.00,,,0.00,WUHU216DAVISVP2,2013-07-12 08:17:00,
2013-07-12 03:22:00,75.2,62.8,29.71,South,177,10.0,12.0,65,0.00,,,0.00,WUHU216DAVISVP2,2013-07-12 08:22:00,
2013-07-12 03:27:00,75.2,62.8,29.71,SSW,206,3.0,12.0,65,0.00,,,0.00,WUHU216DAVISVP2,2013-07-12 08:27:00,
2013-07-12 03:32:00,75.2,62.8,29.72,SSW,207,2.0,14.0,65,0.00,,,0.00,WUHU216DAVISVP2,2013-07-12 08:32:00,
2013-07-12 03:37:00,75.2,62.8,29.72,SE,144,2.0,14.0,65,0.00,,,0.00,WUHU216DAVISVP2,2013-07-12 08:37:00,
2013-07-12 03:42:00,75.1,62.7,29.72,South,175,1.0,10.0,65,0.00,,,0.00,WUHU216DAVISVP2,2013-07-12 08:42:00,
2013-07-12 03:47:00,75.1,62.7,29.73,SSW,193,9.0,12.0,65,0.00,,,0.00,WUHU216DAVISVP2,2013-07-12 08:47:00,
2013-07-12 03:52:00,75.0,63.1,29.73,South,181,3.0,14.0,66,0.00,,,0.00,WUHU216DAVISVP2,2013-07-12 08:52:00,
2013-07-12 03:57:00,74.9,63.0,29.73,South,186,0.0,14.0,66,0.00,,,0.00,WUHU216DAVISVP2,2013-07-12 08:57:00,
2013-07-12 04:02:00,74.8,62.9,29.73,South,180,4.0,10.0,66,0.00,,,0.00,WUHU216DAVISVP2,2013-07-12 09:02:00,
2013-07-12 04:07:00,74.8,62.9,29.72,SSW,202,2.0,10.0,66,0.00,,,0.00,WUHU216DAVISVP2,2013-07-12 09:07:00,
2013-07-12 04:12:00,74.7,62.8,29.72,SSE,157,3.0,15.0,66,0.00,,,0.00,WUHU216DAVISVP2,2013-07-12 09:12:00,
2013-07-12 04:17:00,74.6,62.7,29.72,SSW,204,2.0,15.0,66,0.00,,,0.00,WUHU216DAVISVP2,2013-07-12 09:17:00,
2013-07-12 04:22:00,74.5,62.6,29.71,SSW,206,0.0,10.0,66,0.00,,,0.00,WUHU216DAVISVP2,2013-07-12 09:22:00,
2013-07-12 04:27:00,74.3,62.8,29.71,South,188,12.0,12.0,67,0.00,,,0.00,WUHU216DAVISVP2,2013-07-12 09:27:00,
2013-07-12 04:32:00,74.2,62.7,29.71,SSW,195,5.0,14.0,67,0.00,,,0.00,WUHU216DAVISVP2,2013-07-12 09:32:00,
2013-07-12 04:37:00,74.2,62.7,29.71,South,183,7.0,14.0,67,0.00,,,0.00,WUHU216DAVISVP2,2013-07-12 09:37:00,
2013-07-12 04:42:00,74.1,62.7,29.71,South,186,0.0,13.0,67,0.00,,,0.00,WUHU216DAVISVP2,2013-07-12 09:42:00,
2013-07-12 04:47:00,74.0,62.6,29.71,SSE,158,0.0,13.0,67,0.00,,,0.00,WUHU216DAVISVP2,2013-07-12 09:47:00,
2013-07-12 04:52:00,74.0,62.6,29.71,SSW,198,9.0,10.0,67,0.00,,,0.00,WUHU216DAVISVP2,2013-07-12 09:52:00,
2013-07-12 04:57:00,73.9,62.5,29.71,South,179,0.0,10.0,67,0.00,,,0.00,WUHU216DAVISVP2,2013-07-12 09:57:00,
2013-07-12 05:02:00,73.9,62.5,29.71,South,191,4.0,11.0,67,0.00,,,0.00,WUHU216DAVISVP2,2013-07-12 10:02:00,
2013-07-12 05:07:00,73.8,62.4,29.71,SSE,153,5.0,11.0,67,0.00,,,0.00,WUHU216DAVISVP2,2013-07-12 10:07:00,
2013-07-12 05:12:00,73.7,62.3,29.71,South,182,5.0,13.0,67,0.00,,,0.00,WUHU216DAVISVP2,2013-07-12 10:12:00,
2013-07-12 05:17:00,73.5,62.5,29.71,SSW,210,0.0,13.0,68,0.00,,,0.00,WUHU216DAVISVP2,2013-07-12 10:17:00,
2013-07-12 05:22:00,73.4,62.4,29.71,SSW,199,5.0,11.0,68,0.00,,,0.00,WUHU216DAVISVP2,2013-07-12 10:22:00,
2013-07-12 05:27:00,73.3,62.3,29.71,South,171,3.0,15.0,68,0.00,,,0.00,WUHU216DAVISVP2,2013-07-12 10:27:00,
2013-07-12 05:32:00,73.1,62.1,29.71,SSW,198,3.0,15.0,68,0.00,,,0.00,WUHU216DAVISVP2,2013-07-12 10:32:00,
2013-07-12 05:37:00,73.0,62.4,29.71,SSE,159,4.0,14.0,69,0.00,,,0.00,WUHU216DAVISVP2,2013-07-12 10:37:00,
2013-07-12 05:42:00,72.9,62.3,29.71,SSW,192,6.0,12.0,69,0.00,,,0.00,WUHU216DAVISVP2,2013-07-12 10:42:00,
2013-07-12 05:47:00,72.8,62.2,29.71,South,175,0.0,12.0,69,0.00,,,0.00,WUHU216DAVISVP2,2013-07-12 10:47:00,
2013-07-12 05:52:00,72.6,62.0,29.71,WSW,246,7.0,12.0,69,0.00,,,0.00,WUHU216DAVISVP2,2013-07-12 10:52:00,
2013-07-12 05:57:00,72.6,62.0,29.71,SSW,192,0.0,12.0,69,0.00,,,0.00,WUHU216DAVISVP2,2013-07-12 10:57:00,
2013-07-12 06:02:00,72.5,61.9,29.71,South,178,4.0,14.0,69,0.00,,,0.00,WUHU216DAVISVP2,2013-07-12 11:02:00,
2013-07-12 06:07:00,72.5,61.9,29.70,South,180,3.0,14.0,69,0.00,,,0.00,WUHU216DAVISVP2,2013-07-12 11:07:00,
2013-07-12 06:12:00,72.4,61.8,29.71,SSW,197,0.0,12.0,69,0.00,,,0.00,WUHU216DAVISVP2,2013-07-12 11:12:00,
2013-07-12 06:17:00,72.4,61.8,29.70,SSW,196,3.0,10.0,69,0.00,,,0.00,WUHU216DAVISVP2,2013-07-12 11:17:00,
2013-07-12 06:22:00,72.4,61.8,29.70,SSE,167,2.0,9.0,69,0.00,,,0.00,WUHU216DAVISVP2,2013-07-12 11:22:00,
2013-07-12 06:27:00,72.4,61.8,29.70,South,182,0.0,13.0,69,0.00,,,0.00,WUHU216DAVISVP2,2013-07-12 11:27:00,
2013-07-12 06:32:00,72.5,61.9,29.70,South,178,1.0,13.0,69,0.00,,,0.00,WUHU216DAVISVP2,2013-07-12 11:32:00,
2013-07-12 06:37:00,72.5,61.9,29.70,SW,218,0.0,13.0,69,0.00,,,0.00,WUHU216DAVISVP2,2013-07-12 11:37:00,
2013-07-12 06:42:00,72.6,62.0,29.70,South,179,4.0,13.0,69,0.00,,,0.00,WUHU216DAVISVP2,2013-07-12 11:42:00,
2013-07-12 06:47:00,72.6,62.0,29.70,South,174,4.0,13.0,69,0.00,,,0.00,WUHU216DAVISVP2,2013-07-12 11:47:00,
2013-07-12 06:52:00,72.7,62.1,29.70,South,178,9.0,13.0,69,0.00,,,0.00,WUHU216DAVISVP2,2013-07-12 11:52:00,
2013-07-12 06:57:00,72.7,62.1,29.70,South,183,2.0,13.0,69,0.00,,,0.00,WUHU216DAVISVP2,2013-07-12 11:57:00,
2013-07-12 07:02:00,72.7,62.1,29.70,SSW,192,3.0,14.0,69,0.00,,,0.00,WUHU216DAVISVP2,2013-07-12 12:02:00,
2013-07-12 07:07:00,72.8,62.2,29.70,SSE,165,4.0,14.0,69,0.00,,,0.00,WUHU216DAVISVP2,2013-07-12 12:07:00,
2013-07-12 07:12:00,72.9,61.9,29.70,SSE,168,4.0,10.0,68,0.00,,,0.00,WUHU216DAVISVP2,2013-07-12 12:12:00,
2013-07-12 07:17:00,73.0,62.0,29.70,SE,142,0.0,13.0,68,0.00,,,0.00,WUHU216DAVISVP2,2013-07-12 12:17:00,
2013-07-12 07:22:00,73.0,62.0,29.71,SSW,202,4.0,13.0,68,0.00,,,0.00,WUHU216DAVISVP2,2013-07-12 12:22:00,
2013-07-12 07:27:00,73.0,62.0,29.71,South,182,3.0,11.0,68,0.00,,,0.00,WUHU216DAVISVP2,2013-07-12 12:27:00,
2013-07-12 07:32:00,73.0,62.0,29.71,South,188,4.0,13.0,68,0.00,,,0.00,WUHU216DAVISVP2,2013-07-12 12:32:00,
2013-07-12 07:37:00,73.0,62.0,29.71,SSW,209,7.0,14.0,68,0.00,,,0.00,WUHU216DAVISVP2,2013-07-12 12:37:00,
2013-07-12 07:42:00,73.0,62.0,29.70,South,175,2.0,14.0,68,0.00,,,0.00,WUHU216DAVISVP2,2013-07-12 12:42:00,
2013-07-12 07:47:00,73.0,62.0,29.70,South,189,0.0,12.0,68,0.00,,,0.00,WUHU216DAVISVP2,2013-07-12 12:47:00,
2013-07-12 07:52:00,73.3,62.3,29.70,South,177,6.0,12.0,68,0.00,,,0.00,WUHU216DAVISVP2,2013-07-12 12:52:00,
2013-07-12 07:57:00,73.6,62.2,29.70,SSW,197,7.0,14.0,67,0.00,,,0.00,WUHU216DAVISVP2,2013-07-12 12:57:00,
2013-07-12 08:02:00,73.9,62.5,29.70,South,187,2.0,14.0,67,0.00,,,0.00,WUHU216DAVISVP2,2013-07-12 13:02:00,
2013-07-12 08:07:00,74.2,62.7,29.70,South,180,0.0,15.0,67,0.00,,,0.00,WUHU216DAVISVP2,2013-07-12 13:07:00,
2013-07-12 08:12:00,74.5,62.6,29.70,SSW,195,4.0,15.0,66,0.00,,,0.00,WUHU216DAVISVP2,2013-07-12 13:12:00,
2013-07-12 08:17:00,74.8,62.9,29.70,South,191,5.0,13.0,66,0.00,,,0.00,WUHU216DAVISVP2,2013-07-12 13:17:00,
2013-07-12 08:22:00,75.1,62.7,29.70,SSW,196,13.0,17.0,65,0.00,,,0.00,WUHU216DAVISVP2,2013-07-12 13:22:00,
2013-07-12 08:27:00,75.3,62.9,29.70,South,183,2.0,20.0,65,0.00,,,0.00,WUHU216DAVISVP2,2013-07-12 13:27:00,
2013-07-12 08:32:00,75.4,63.0,29.70,SSW,206,3.0,20.0,65,0.00,,,0.00,WUHU216DAVISVP2,2013-07-12 13:32:00,
2013-07-12 08:37:00,75.8,63.0,29.71,SSW,207,3.0,18.0,64,0.00,,,0.00,WUHU216DAVISVP2,2013-07-12 13:37:00,
2013-07-12 08:42:00,76.1,63.3,29.70,South,190,1.0,18.0,64,0.00,,,0.00,WUHU216DAVISVP2,2013-07-12 13:42:00,
2013-07-12 08:47:00,76.5,63.6,29.70,SSW,194,10.0,16.0,64,0.00,,,0.00,WUHU216DAVISVP2,2013-07-12 13:47:00,
2013-07-12 08:52:00,76.9,63.6,29.70,South,186,2.0,16.0,63,0.00,,,0.00,WUHU216DAVISVP2,2013-07-12 13:52:00,
2013-07-12 08:57:00,77.2,63.9,29.70,South,180,4.0,15.0,63,0.00,,,0.00,WUHU216DAVISVP2,2013-07-12 13:57:00,
2013-07-12 09:02:00,77.5,63.7,29.70,SSW,207,4.0,18.0,62,0.00,,,0.00,WUHU216DAVISVP2,2013-07-12 14:02:00,
2013-07-12 09:07:00,77.9,64.1,29.69,SSE,163,17.0,18.0,62,0.00,,,0.00,WUHU216DAVISVP2,2013-07-12 14:07:00,
2013-07-12 09:12:00,78.1,64.3,29.70,SSE,167,4.0,17.0,62,0.00,,,0.00,WUHU216DAVISVP2,2013-07-12 14:12:00,
2013-07-12 09:17:00,78.5,64.2,29.70,SSE,167,15.0,15.0,61,0.00,,,0.00,WUHU216DAVISVP2,2013-07-12 14:17:00,
2013-07-12 09:22:00,78.7,64.4,29.70,South,171,3.0,16.0,61,0.00,,,0.00,WUHU216DAVISVP2,2013-07-12 14:22:00,
2013-07-12 09:27:00,78.9,64.5,29.69,SSE,157,6.0,18.0,61,0.00,,,0.00,WUHU216DAVISVP2,2013-07-12 14:27:00,
2013-07-12 09:32:00,79.2,64.8,29.69,South,187,2.0,18.0,61,0.00,,,0.00,WUHU216DAVISVP2,2013-07-12 14:32:00,
2013-07-12 09:37:00,79.1,64.7,29.69,South,189,9.0,14.0,61,0.00,,,0.00,WUHU216DAVISVP2,2013-07-12 14:37:00,
2013-07-12 09:42:00,79.0,64.6,29.69,SSE,149,0.0,16.0,61,0.00,,,0.00,WUHU216DAVISVP2,2013-07-12 14:42:00,
2013-07-12 09:47:00,79.2,64.8,29.69,South,188,0.0,17.0,61,0.00,,,0.00,WUHU216DAVISVP2,2013-07-12 14:47:00,
2013-07-12 09:52:00,79.5,64.6,29.69,South,172,7.0,17.0,60,0.00,,,0.00,WUHU216DAVISVP2,2013-07-12 14:52:00,
2013-07-12 09:57:00,80.0,65.1,29.68,South,186,7.0,16.0,60,0.00,,,0.00,WUHU216DAVISVP2,2013-07-12 14:57:00,
2013-07-12 10:02:00,80.5,65.1,29.68,SSE,167,5.0,16.0,59,0.00,,,0.00,WUHU216DAVISVP2,2013-07-12 15:02:00,
2013-07-12 10:07:00,80.6,65.7,29.67,SSW,196,7.0,18.0,60,0.00,,,0.00,WUHU216DAVISVP2,2013-07-12 15:07:00,
2013-07-12 10:12:00,80.6,65.7,29.67,SSE,167,0.0,18.0,60,0.00,,,0.00,WUHU216DAVISVP2,2013-07-12 15:12:00,
2013-07-12 10:17:00,81.4,65.4,29.67,South,182,7.0,16.0,58,0.00,,,0.00,WUHU216DAVISVP2,2013-07-12 15:17:00,
2013-07-12 10:22:00,81.7,65.7,29.67,SSE,153,10.0,21.0,58,0.00,,,0.00,WUHU216DAVISVP2,2013-07-12 15:22:00,
2013-07-12 10:27:00,81.6,65.6,29.67,SE,131,11.0,21.0,58,0.00,,,0.00,WUHU216DAVISVP2,2013-07-12 15:27:00,
2013-07-12 10:32:00,81.6,65.6,29.67,SE,142,5.0,17.0,58,0.00,,,0.00,WUHU216DAVISVP2,2013-07-12 15:32:00,
2013-07-12 10:37:00,81.9,66.4,29.67,SSW,209,2.0,17.0,59,0.00,,,0.00,WUHU216DAVISVP2,2013-07-12 15:37:00,
2013-07-12 10:42:00,82.4,65.9,29.66,SSE,153,2.0,20.0,57,0.00,,,0.00,WUHU216DAVISVP2,2013-07-12 15:42:00,
2013-07-12 10:47:00,82.4,65.9,29.66,South,182,6.0,20.0,57,0.00,,,0.00,WUHU216DAVISVP2,2013-07-12 15:47:00,
2013-07-12 10:52:00,83.0,66.4,29.67,South,175,7.0,19.0,57,0.00,,,0.00,WUHU216DAVISVP2,2013-07-12 15:52:00,
2013-07-12 10:57:00,83.0,66.4,29.66,SSE,160,4.0,20.0,57,0.00,,,0.00,WUHU216DAVISVP2,2013-07-12 15:57:00,
2013-07-12 11:02:00,83.4,66.3,29.66,SSW,192,11.0,20.0,56,0.00,,,0.00,WUHU216DAVISVP2,2013-07-12 16:02:00,
2013-07-12 11:07:00,83.5,66.4,29.66,SSW,195,2.0,24.0,56,0.00,,,0.00,WUHU216DAVISVP2,2013-07-12 16:07:00,
2013-07-12 11:12:00,83.7,66.6,29.66,South,174,1.0,24.0,56,0.00,,,0.00,WUHU216DAVISVP2,2013-07-12 16:12:00,
2013-07-12 11:17:00,83.5,66.9,29.66,South,172,10.0,19.0,57,0.00,,,0.00,WUHU216DAVISVP2,2013-07-12 16:17:00,
2013-07-12 11:22:00,83.9,67.3,29.66,South,179,7.0,17.0,57,0.00,,,0.00,WUHU216DAVISVP2,2013-07-12 16:22:00,
2013-07-12 11:27:00,84.9,67.2,29.66,SSW,201,6.0,19.0,55,0.00,,,0.00,WUHU216DAVISVP2,2013-07-12 16:27:00,
2013-07-12 11:32:00,85.4,67.6,29.65,South,172,1.0,20.0,55,0.00,,,0.00,WUHU216DAVISVP2,2013-07-12 16:32:00,
2013-07-12 11:37:00,85.6,67.3,29.65,ESE,113,0.0,20.0,54,0.00,,,0.00,WUHU216DAVISVP2,2013-07-12 16:37:00,
2013-07-12 11:42:00,85.9,67.5,29.65,South,189,2.0,21.0,54,0.00,,,0.00,WUHU216DAVISVP2,2013-07-12 16:42:00,
2013-07-12 11:47:00,85.9,67.5,29.65,SSE,147,13.0,21.0,54,0.00,,,0.00,WUHU216DAVISVP2,2013-07-12 16:47:00,
2013-07-12 11:52:00,85.8,67.4,29.65,SSE,150,18.0,19.0,54,0.00,,,0.00,WUHU216DAVISVP2,2013-07-12 16:52:00,
2013-07-12 11:57:00,86.0,67.6,29.65,SSE,162,3.0,18.0,54,0.00,,,0.00,WUHU216DAVISVP2,2013-07-12 16:57:00,
2013-07-12 12:02:00,86.5,68.1,29.65,SW,214,5.0,16.0,54,0.00,,,0.00,WUHU216DAVISVP2,2013-07-12 17:02:00,
2013-07-12 12:07:00,87.0,68.0,29.65,SSW,192,3.0,17.0,53,0.00,,,0.00,WUHU216DAVISVP2,2013-07-12 17:07:00,
2013-07-12 12:12:00,87.1,68.7,29.65,WNW,289,0.0,18.0,54,0.00,,,0.00,WUHU216DAVISVP2,2013-07-12 17:12:00,
2013-07-12 12:17:00,87.5,68.5,29.65,South,186,1.0,18.0,53,0.00,,,0.00,WUHU216DAVISVP2,2013-07-12 17:17:00,
2013-07-12 12:22:00,87.4,68.4,29.65,South,188,16.0,20.0,53,0.00,,,0.00,WUHU216DAVISVP2,2013-07-12 17:22:00,
2013-07-12 12:27:00,87.1,68.7,29.65,SE,132,1.0,20.0,54,0.00,,,0.00,WUHU216DAVISVP2,2013-07-12 17:27:00,
2013-07-12 12:32:00,87.5,69.0,29.65,SSE,167,0.0,18.0,54,0.00,,,0.00,WUHU216DAVISVP2,2013-07-12 17:32:00,
2013-07-12 12:38:00,88.1,68.5,29.65,South,186,9.0,17.0,52,0.00,,,0.00,WUHU216DAVISVP2,2013-07-12 17:38:00,
2013-07-12 12:43:00,88.4,68.7,29.65,South,190,14.0,17.0,52,0.00,,,0.00,WUHU216DAVISVP2,2013-07-12 17:43:00,
2013-07-12 12:48:00,88.1,69.0,29.65,SSW,194,3.0,19.0,53,0.00,,,0.00,WUHU216DAVISVP2,2013-07-12 17:48:00,
2013-07-12 12:53:00,87.8,68.8,29.65,South,190,5.0,19.0,53,0.00,,,0.00,WUHU216DAVISVP2,2013-07-12 17:53:00,
2013-07-12 12:58:00,87.9,68.8,29.66,South,177,5.0,21.0,53,0.00,,,0.00,WUHU216DAVISVP2,2013-07-12 17:58:00,
2013-07-12 13:03:00,88.4,69.3,29.66,South,182,7.0,21.0,53,0.00,,,0.00,WUHU216DAVISVP2,2013-07-12 18:03:00,
2013-07-12 13:08:00,89.2,70.1,29.66,SE,146,4.0,18.0,53,0.00,,,0.00,WUHU216DAVISVP2,2013-07-12 18:08:00,
2013-07-12 13:13:00,89.8,69.5,29.66,SSW,192,10.0,18.0,51,0.00,,,0.00,WUHU216DAVISVP2,2013-07-12 18:13:00,
2013-07-12 13:18:00,89.9,68.9,29.66,SSE,156,13.0,19.0,50,0.00,,,0.00,WUHU216DAVISVP2,2013-07-12 18:18:00,
2013-07-12 13:23:00,90.1,69.7,29.66,South,179,11.0,19.0,51,0.00,,,0.00,WUHU216DAVISVP2,2013-07-12 18:23:00,
2013-07-12 13:28:00,90.2,69.8,29.66,South,180,3.0,16.0,51,0.00,,,0.00,WUHU216DAVISVP2,2013-07-12 18:28:00,
2013-07-12 13:33:00,90.5,70.1,29.65,SSW,209,10.0,18.0,51,0.00,,,0.00,WUHU216DAVISVP2,2013-07-12 18:33:00,
2013-07-12 13:38:00,90.8,69.8,29.66,SSE,161,5.0,18.0,50,0.00,,,0.00,WUHU216DAVISVP2,2013-07-12 18:38:00,
2013-07-12 13:43:00,90.6,70.2,29.65,South,190,2.0,18.0,51,0.00,,,0.00,WUHU216DAVISVP2,2013-07-12 18:43:00,
2013-07-12 13:48:00,91.3,70.2,29.65,SSW,197,4.0,18.0,50,0.00,,,0.00,WUHU216DAVISVP2,2013-07-12 18:48:00,
2013-07-12 13:54:00,91.7,70.6,29.65,South,186,10.0,15.0,50,0.00,,,0.00,WUHU216DAVISVP2,2013-07-12 18:54:00,
2013-07-12 13:59:00,91.8,70.1,29.66,South,182,3.0,15.0,49,0.00,,,0.00,WUHU216DAVISVP2,2013-07-12 18:59:00,
2013-07-12 14:04:00,91.6,70.5,29.65,SSW,209,6.0,18.0,50,0.00,,,0.00,WUHU216DAVISVP2,2013-07-12 19:04:00,
2013-07-12 14:09:00,91.8,70.1,29.65,South,180,3.0,18.0,49,0.00,,,0.00,WUHU216DAVISVP2,2013-07-12 19:09:00,
2013-07-12 14:14:00,91.8,70.7,29.65,South,189,7.0,16.0,50,0.00,,,0.00,WUHU216DAVISVP2,2013-07-12 19:14:00,
2013-07-12 14:20:00,91.6,70.5,29.65,SSW,192,1.0,16.0,50,0.00,,,0.00,WUHU216DAVISVP2,2013-07-12 19:20:00,
2013-07-12 14:25:00,90.8,69.8,29.65,SSE,153,14.0,20.0,50,0.00,,,0.00,WUHU216DAVISVP2,2013-07-12 19:25:00,
2013-07-12 14:31:00,90.6,70.2,29.65,South,184,10.0,16.0,51,0.00,,,0.00,WUHU216DAVISVP2,2013-07-12 19:31:00,
2013-07-12 14:36:00,91.4,70.3,29.65,South,170,4.0,17.0,50,0.00,,,0.00,WUHU216DAVISVP2,2013-07-12 19:36:00,
2013-07-12 14:41:00,92.0,70.9,29.65,South,184,0.0,17.0,50,0.00,,,0.00,WUHU216DAVISVP2,2013-07-12 19:41:00,
2013-07-12 14:46:00,92.4,71.3,29.65,South,184,11.0,16.0,50,0.00,,,0.00,WUHU216DAVISVP2,2013-07-12 19:46:00,
2013-07-12 14:51:00,93.0,71.2,29.65,South,183,3.0,17.0,49,0.00,,,0.00,WUHU216DAVISVP2,2013-07-12 19:51:00,
2013-07-12 14:57:00,93.2,71.4,29.65,South,177,6.0,17.0,49,0.00,,,0.00,WUHU216DAVISVP2,2013-07-12 19:57:00,
2013-07-12 15:02:00,93.0,71.2,29.64,South,180,6.0,16.0,49,0.00,,,0.00,WUHU216DAVISVP2,2013-07-12 20:02:00,
2013-07-12 15:07:00,92.7,70.9,29.64,SSW,192,5.0,14.0,49,0.00,,,0.00,WUHU216DAVISVP2,2013-07-12 20:07:00,
2013-07-12 15:12:00,92.4,70.6,29.64,SSW,194,4.0,15.0,49,0.00,,,0.00,WUHU216DAVISVP2,2013-07-12 20:12:00,
2013-07-12 15:17:00,91.8,70.7,29.64,SSW,192,0.0,15.0,50,0.00,,,0.00,WUHU216DAVISVP2,2013-07-12 20:17:00,
2013-07-12 15:23:00,91.5,70.4,29.64,SSW,195,1.0,13.0,50,0.00,,,0.00,WUHU216DAVISVP2,2013-07-12 20:23:00,
2013-07-12 15:27:00,91.2,70.7,29.65,South,175,0.0,12.0,51,0.00,,,0.00,WUHU216DAVISVP2,2013-07-12 20:27:00,
2013-07-12 15:32:00,91.2,70.7,29.66,SSW,198,3.0,14.0,51,0.00,,,0.00,WUHU216DAVISVP2,2013-07-12 20:32:00,
2013-07-12 15:37:00,92.2,71.1,29.66,South,179,9.0,17.0,50,0.00,,,0.00,WUHU216DAVISVP2,2013-07-12 20:37:00,
2013-07-12 15:42:00,92.3,71.2,29.66,SSW,192,3.0,17.0,50,0.00,,,0.00,WUHU216DAVISVP2,2013-07-12 20:42:00,
2013-07-12 15:47:00,92.1,71.0,29.66,SW,217,3.0,14.0,50,0.00,,,0.00,WUHU216DAVISVP2,2013-07-12 20:47:00,
2013-07-12 15:53:00,91.5,70.4,29.66,South,178,0.0,16.0,50,0.00,,,0.00,WUHU216DAVISVP2,2013-07-12 20:53:00,
2013-07-12 15:58:00,91.1,70.7,29.66,SSW,198,3.0,16.0,51,0.00,,,0.00,WUHU216DAVISVP2,2013-07-12 20:58:00,
2013-07-12 16:03:00,91.1,71.2,29.66,South,188,9.0,13.0,52,0.00,,,0.00,WUHU216DAVISVP2,2013-07-12 21:03:00,
2013-07-12 16:08:00,90.9,71.1,29.66,South,180,1.0,13.0,52,0.00,,,0.00,WUHU216DAVISVP2,2013-07-12 21:08:00,
2013-07-12 16:13:00,90.7,70.9,29.66,SSW,205,0.0,12.0,52,0.00,,,0.00,WUHU216DAVISVP2,2013-07-12 21:13:00,
2013-07-12 16:18:00,90.5,71.3,29.66,South,190,0.0,7.0,53,0.00,,,0.00,WUHU216DAVISVP2,2013-07-12 21:18:00,
2013-07-12 16:23:00,90.4,71.2,29.66,South,189,0.0,7.0,53,0.00,,,0.00,WUHU216DAVISVP2,2013-07-12 21:23:00,
2013-07-12 16:28:00,90.6,71.4,29.66,South,176,1.0,4.0,53,0.00,,,0.00,WUHU216DAVISVP2,2013-07-12 21:28:00,
2013-07-12 16:33:00,90.7,71.4,29.66,WSW,249,0.0,6.0,53,0.00,,,0.00,WUHU216DAVISVP2,2013-07-12 21:33:00,
2013-07-12 16:39:00,90.7,71.4,29.66,SW,221,0.0,7.0,53,0.00,,,0.00,WUHU216DAVISVP2,2013-07-12 21:39:00,
2013-07-12 16:44:00,90.8,71.0,29.66,SSW,199,0.0,7.0,52,0.00,,,0.00,WUHU216DAVISVP2,2013-07-12 21:44:00,
2013-07-12 16:49:00,90.7,71.4,29.66,SW,222,0.0,5.0,53,0.00,,,0.00,WUHU216DAVISVP2,2013-07-12 21:49:00,
2013-07-12 16:54:00,90.5,70.7,29.67,WSW,253,4.0,5.0,52,0.00,,,0.00,WUHU216DAVISVP2,2013-07-12 21:54:00,
2013-07-12 16:59:00,89.9,70.7,29.67,WNW,290,0.0,5.0,53,0.00,,,0.00,WUHU216DAVISVP2,2013-07-12 21:59:00,
2013-07-12 17:04:00,89.5,71.5,29.66,West,259,0.0,4.0,55,0.00,,,0.00,WUHU216DAVISVP2,2013-07-12 22:04:00,
2013-07-12 17:10:00,89.3,70.7,29.67,WSW,247,0.0,5.0,54,0.00,,,0.00,WUHU216DAVISVP2,2013-07-12 22:10:00,
2013-07-12 17:15:00,89.1,71.1,29.67,West,271,0.0,7.0,55,0.00,,,0.00,WUHU216DAVISVP2,2013-07-12 22:15:00,
2013-07-12 17:20:00,88.7,71.2,29.67,West,280,0.0,7.0,56,0.00,,,0.00,WUHU216DAVISVP2,2013-07-12 22:20:00,
2013-07-12 17:25:00,88.2,71.3,29.67,WNW,290,1.0,7.0,57,0.00,,,0.00,WUHU216DAVISVP2,2013-07-12 22:25:00,
2013-07-12 17:30:00,87.8,71.5,29.67,West,280,0.0,7.0,58,0.00,,,0.00,WUHU216DAVISVP2,2013-07-12 22:30:00,
2013-07-12 17:35:00,87.6,71.8,29.67,West,280,0.0,4.0,59,0.00,,,0.00,WUHU216DAVISVP2,2013-07-12 22:35:00,
2013-07-12 17:40:00,87.4,71.6,29.67,West,276,0.0,4.0,59,0.00,,,0.00,WUHU216DAVISVP2,2013-07-12 22:40:00,
2013-07-12 17:45:00,87.2,70.9,29.67,West,275,0.0,4.0,58,0.00,,,0.00,WUHU216DAVISVP2,2013-07-12 22:45:00,
2013-07-12 17:50:00,87.1,70.8,29.67,West,275,0.0,2.0,58,0.00,,,0.00,WUHU216DAVISVP2,2013-07-12 22:50:00,
2013-07-12 17:55:00,87.1,71.3,29.67,West,275,0.0,1.0,59,0.00,,,0.00,WUHU216DAVISVP2,2013-07-12 22:55:00,
2013-07-12 18:01:00,86.9,71.1,29.67,West,276,0.0,0.0,59,0.00,,,0.00,WUHU216DAVISVP2,2013-07-12 23:01:00,
2013-07-12 18:06:00,86.6,71.3,29.67,West,278,0.0,0.0,60,0.00,,,0.00,WUHU216DAVISVP2,2013-07-12 23:06:00,
2013-07-12 18:11:00,86.6,70.8,29.67,West,279,0.0,3.0,59,0.00,,,0.00,WUHU216DAVISVP2,2013-07-12 23:11:00,
2013-07-12 18:17:00,86.7,70.9,29.67,West,279,0.0,1.0,59,0.00,,,0.00,WUHU216DAVISVP2,2013-07-12 23:17:00,
2013-07-12 18:22:00,86.7,71.4,29.67,West,279,0.0,0.0,60,0.00,,,0.00,WUHU216DAVISVP2,2013-07-12 23:22:00,
2013-07-12 18:27:00,86.6,71.3,29.67,West,279,0.0,0.0,60,0.00,,,0.00,WUHU216DAVISVP2,2013-07-12 23:27:00,
2013-07-12 18:32:00,86.5,71.2,29.67,West,279,0.0,0.0,60,0.00,,,0.00,WUHU216DAVISVP2,2013-07-12 23:32:00,
2013-07-12 18:37:00,86.5,71.2,29.67,West,279,0.0,0.0,60,0.00,,,0.00,WUHU216DAVISVP2,2013-07-12 23:37:00,
2013-07-12 18:42:00,86.5,71.2,29.67,West,279,0.0,0.0,60,0.00,,,0.00,WUHU216DAVISVP2,2013-07-12 23:42:00,
2013-07-12 18:47:00,86.4,71.6,29.67,West,279,0.0,0.0,61,0.00,,,0.00,WUHU216DAVISVP2,2013-07-12 23:47:00,
2013-07-12 18:52:00,86.4,71.1,29.67,West,279,0.0,2.0,60,0.00,,,0.00,WUHU216DAVISVP2,2013-07-12 23:52:00,
2013-07-12 18:57:00,86.4,71.1,29.67,West,279,0.0,2.0,60,0.00,,,0.00,WUHU216DAVISVP2,2013-07-12 23:57:00,
2013-07-12 19:02:00,86.4,71.1,29.67,West,279,0.0,2.0,60,0.00,,,0.00,WUHU216DAVISVP2,2013-07-13 00:02:00,
2013-07-12 19:07:00,86.4,71.1,29.67,West,279,0.0,0.0,60,0.00,,,0.00,WUHU216DAVISVP2,2013-07-13 00:07:00,
2013-07-12 19:13:00,86.3,71.5,29.67,West,279,0.0,0.0,61,0.00,,,0.00,WUHU216DAVISVP2,2013-07-13 00:13:00,
2013-07-12 19:18:00,86.3,71.5,29.67,West,279,0.0,2.0,61,0.00,,,0.00,WUHU216DAVISVP2,2013-07-13 00:18:00,
2013-07-12 19:23:00,86.4,71.1,29.67,West,279,0.0,2.0,60,0.00,,,0.00,WUHU216DAVISVP2,2013-07-13 00:23:00,
2013-07-12 19:28:00,86.4,71.1,29.67,West,279,0.0,0.0,60,0.00,,,0.00,WUHU216DAVISVP2,2013-07-13 00:28:00,
2013-07-12 19:33:00,86.4,71.1,29.67,West,280,0.0,1.0,60,0.00,,,0.00,WUHU216DAVISVP2,2013-07-13 00:33:00,
2013-07-12 19:39:00,86.3,71.1,29.67,West,280,0.0,1.0,60,0.00,,,0.00,WUHU216DAVISVP2,2013-07-13 00:39:00,
2013-07-12 19:44:00,86.0,70.8,29.68,West,280,0.0,1.0,60,0.00,,,0.00,WUHU216DAVISVP2,2013-07-13 00:44:00,
2013-07-12 19:49:00,85.4,71.2,29.67,WNW,294,0.0,3.0,62,0.00,,,0.00,WUHU216DAVISVP2,2013-07-13 00:49:00,
2013-07-12 19:54:00,84.1,70.4,29.68,NNW,342,0.0,3.0,63,0.00,,,0.00,WUHU216DAVISVP2,2013-07-13 00:54:00,
2013-07-12 19:59:00,83.0,70.3,29.68,NNE,21,0.0,3.0,65,0.00,,,0.00,WUHU216DAVISVP2,2013-07-13 00:59:00,
2013-07-12 20:04:00,82.4,69.7,29.67,NNE,19,0.0,4.0,65,0.00,,,0.00,WUHU216DAVISVP2,2013-07-13 01:04:00,
2013-07-12 20:09:00,82.1,69.9,29.68,NNE,13,0.0,5.0,66,0.00,,,0.00,WUHU216DAVISVP2,2013-07-13 01:09:00,
2013-07-12 20:14:00,82.1,69.9,29.67,NNE,13,0.0,5.0,66,0.00,,,0.00,WUHU216DAVISVP2,2013-07-13 01:14:00,
2013-07-12 20:19:00,82.1,69.9,29.67,NNE,13,0.0,2.0,66,0.00,,,0.00,WUHU216DAVISVP2,2013-07-13 01:19:00,
2013-07-12 20:24:00,81.9,69.7,29.67,NNE,13,0.0,0.0,66,0.00,,,0.00,WUHU216DAVISVP2,2013-07-13 01:24:00,
2013-07-12 20:29:00,81.7,69.9,29.67,NNE,13,0.0,0.0,67,0.00,,,0.00,WUHU216DAVISVP2,2013-07-13 01:29:00,
2013-07-12 20:34:00,81.6,69.8,29.67,NNE,13,0.0,0.0,67,0.00,,,0.00,WUHU216DAVISVP2,2013-07-13 01:34:00,
2013-07-12 20:40:00,81.6,69.8,29.66,NNE,17,0.0,5.0,67,0.00,,,0.00,WUHU216DAVISVP2,2013-07-13 01:40:00,
2013-07-12 20:45:00,81.6,69.8,29.67,NNE,25,0.0,5.0,67,0.00,,,0.00,WUHU216DAVISVP2,2013-07-13 01:45:00,
2013-07-12 20:50:00,81.7,70.4,29.68,NNE,21,0.0,3.0,68,0.00,,,0.00,WUHU216DAVISVP2,2013-07-13 01:50:00,
2013-07-12 20:55:00,81.7,70.4,29.68,NNE,23,0.0,3.0,68,0.00,,,0.00,WUHU216DAVISVP2,2013-07-13 01:55:00,
2013-07-12 21:00:00,81.7,69.9,29.68,NNE,32,0.0,2.0,67,0.00,,,0.00,WUHU216DAVISVP2,2013-07-13 02:00:00,
2013-07-12 21:05:00,81.6,70.3,29.68,NNE,25,0.0,0.0,68,0.00,,,0.00,WUHU216DAVISVP2,2013-07-13 02:05:00,
2013-07-12 21:11:00,81.6,70.3,29.68,NNE,26,0.0,0.0,68,0.00,,,0.00,WUHU216DAVISVP2,2013-07-13 02:11:00,
2013-07-12 21:16:00,81.6,70.3,29.68,NNE,26,0.0,0.0,68,0.00,,,0.00,WUHU216DAVISVP2,2013-07-13 02:16:00,
2013-07-12 21:21:00,81.4,70.1,29.69,NNE,26,0.0,2.0,68,0.00,,,0.00,WUHU216DAVISVP2,2013-07-13 02:21:00,
2013-07-12 21:26:00,81.2,69.9,29.69,NNE,26,0.0,2.0,68,0.00,,,0.00,WUHU216DAVISVP2,2013-07-13 02:26:00,
2013-07-12 21:31:00,80.9,69.6,29.70,NNE,25,0.0,0.0,68,0.00,,,0.00,WUHU216DAVISVP2,2013-07-13 02:31:00,
2013-07-12 21:36:00,80.7,69.8,29.70,NNE,26,0.0,0.0,69,0.00,,,0.00,WUHU216DAVISVP2,2013-07-13 02:36:00,
2013-07-12 21:41:00,80.4,69.9,29.70,NNE,25,0.0,0.0,70,0.00,,,0.00,WUHU216DAVISVP2,2013-07-13 02:41:00,
2013-07-12 21:46:00,80.2,69.8,29.70,NNE,26,0.0,0.0,70,0.00,,,0.00,WUHU216DAVISVP2,2013-07-13 02:46:00,
2013-07-12 21:52:00,79.9,69.5,29.71,NNE,26,0.0,0.0,70,0.00,,,0.00,WUHU216DAVISVP2,2013-07-13 02:52:00,
2013-07-12 21:57:00,79.7,69.7,29.71,NNE,25,0.0,1.0,71,0.00,,,0.00,WUHU216DAVISVP2,2013-07-13 02:57:00,
2013-07-12 22:02:00,79.5,69.5,29.72,NNE,25,0.0,1.0,71,0.00,,,0.00,WUHU216DAVISVP2,2013-07-13 03:02:00,
2013-07-12 22:07:00,79.3,69.3,29.72,NNE,25,0.0,0.0,71,0.00,,,0.00,WUHU216DAVISVP2,2013-07-13 03:07:00,
2013-07-12 22:12:00,79.2,69.6,29.73,NNE,25,0.0,0.0,72,0.00,,,0.00,WUHU216DAVISVP2,2013-07-13 03:12:00,
2013-07-12 22:17:00,79.1,69.5,29.73,NNE,26,0.0,0.0,72,0.00,,,0.00,WUHU216DAVISVP2,2013-07-13 03:17:00,
2013-07-12 22:22:00,78.9,69.3,29.74,NNE,26,0.0,0.0,72,0.00,,,0.00,WUHU216DAVISVP2,2013-07-13 03:22:00,
2013-07-12 22:27:00,78.8,69.6,29.75,NNE,25,0.0,0.0,73,0.00,,,0.00,WUHU216DAVISVP2,2013-07-13 03:27:00,
2013-07-12 22:33:00,78.7,69.5,29.75,NNE,26,0.0,0.0,73,0.00,,,0.00,WUHU216DAVISVP2,2013-07-13 03:33:00,
2013-07-12 22:38:00,78.7,69.5,29.74,NNE,25,0.0,0.0,73,0.00,,,0.00,WUHU216DAVISVP2,2013-07-13 03:38:00,
2013-07-12 22:43:00,78.7,69.9,29.74,NNE,25,0.0,4.0,74,0.00,,,0.00,WUHU216DAVISVP2,2013-07-13 03:43:00,
2013-07-12 22:48:00,78.7,69.9,29.74,NNE,25,0.0,4.0,74,0.00,,,0.00,WUHU216DAVISVP2,2013-07-13 03:48:00,
2013-07-12 22:53:00,78.5,69.7,29.74,NNE,25,0.0,0.0,74,0.00,,,0.00,WUHU216DAVISVP2,2013-07-13 03:53:00,
2013-07-12 22:58:00,78.3,69.5,29.75,NNE,25,0.0,0.0,74,0.00,,,0.00,WUHU216DAVISVP2,2013-07-13 03:58:00,
2013-07-12 23:01:00,78.2,69.4,29.75,NNE,25,0.0,0.0,74,0.00,,,0.00,WUHU216DAVISVP2,2013-07-13 04:01:00,
2013-07-12 23:02:00,78.2,69.4,29.75,NNE,25,0.0,0.0,74,0.00,,,0.00,WUHU216DAVISVP2,2013-07-13 04:02:00,
2013-07-12 23:07:00,77.9,69.1,29.75,NNE,25,0.0,0.0,74,0.00,,,0.00,WUHU216DAVISVP2,2013-07-13 04:07:00,
2013-07-12 23:12:00,77.8,69.0,29.75,NNE,25,0.0,0.0,74,0.00,,,0.00,WUHU216DAVISVP2,2013-07-13 04:12:00,
2013-07-12 23:17:00,77.6,69.2,29.75,NNE,25,0.0,0.0,75,0.00,,,0.00,WUHU216DAVISVP2,2013-07-13 04:17:00,
2013-07-12 23:22:00,77.4,69.0,29.76,NNE,25,0.0,0.0,75,0.00,,,0.00,WUHU216DAVISVP2,2013-07-13 04:22:00,
2013-07-12 23:27:00,77.3,68.9,29.76,NNE,25,0.0,0.0,75,0.00,,,0.00,WUHU216DAVISVP2,2013-07-13 04:27:00,
2013-07-12 23:32:00,77.2,68.8,29.77,NNE,25,0.0,0.0,75,0.00,,,0.00,WUHU216DAVISVP2,2013-07-13 04:32:00,
2013-07-12 23:37:00,77.0,69.0,29.77,NNE,25,0.0,1.0,76,0.00,,,0.00,WUHU216DAVISVP2,2013-07-13 04:37:00,
2013-07-12 23:42:00,76.8,68.8,29.77,NNE,25,0.0,1.0,76,0.00,,,0.00,WUHU216DAVISVP2,2013-07-13 04:42:00,
2013-07-12 23:47:00,76.7,69.1,29.78,NNE,25,0.0,0.0,77,0.00,,,0.00,WUHU216DAVISVP2,2013-07-13 04:47:00,
2013-07-12 23:52:00,76.6,69.0,29.78,NNE,22,0.0,6.0,77,0.00,,,0.00,WUHU216DAVISVP2,2013-07-13 04:52:00,
2013-07-12 23:57:00,76.5,69.3,29.78,NNE,22,0.0,6.0,78,0.00,,,0.00,WUHU216DAVISVP2,2013-07-13 04:57:00,